カタログに戻る

COSMOS 2318

GLONASS

LostナビゲーションMEO
NORAD 23622·PAYLOAD·🇷🇺 Russia

打ち上げ Jul 24, 1995 から Baikonur Cosmodrome

Loading…

次のパス (今後24時間)

TLE

古いSource: Space-Track

元期: Aug 1, 2026, 05:08 UTC

1 23622U 95037C   26213.21455514  .00000080  00000-0  00000+0 0  9997
2 23622  65.4732 201.3814 0014359  62.4849  53.6792  2.13101994241197

AllMySatでCOSMOS 2318をリアルタイム追跡

Download on the App Store